Location: Fort Wayne
(41.1310°N, 85.1290°W)
Time: 19:37:25
(UTC-04:00)

BREEZE-M DEB (TANK) - Visible Passes

Search period start: 17 September 2014 00:00
Search period end: 27 September 2014 00:00
Orbit: 280 x 13654 km, 49.6° (Epoch: 16 September)

Date Brightness Start Highest point End Pass type
(mag) Time Alt. Az. Time Alt. Az. Time Alt. Az.
17 Sep 9.6 20:26:58 10° WNW 21:08:16 30° W 22:26:54 10° SW visible
19 Sep 9.3 19:12:51 10° WNW 19:55:11 43° WSW 21:30:10 10° SSW visible
20 Sep 10.0 21:01:58 10° WNW 21:35:14 20° W 22:29:51 10° WSW visible
21 Sep 8.7 18:00:32 10° WNW 18:39:46 56° WSW 20:25:33 10° S visible
22 Sep 9.6 19:43:57 10° WNW 20:23:42 32° WSW 21:44:19 10° SW visible
24 Sep 9.0 18:29:59 10° WNW 19:09:40 44° WSW 20:45:57 10° SSW visible
25 Sep 9.9 20:17:21 10° WNW 20:50:43 21° W 21:48:50 10° SW visible
